• In Kazakhstan
  • List of Countries
  • For 7 days
  • Water Temperature
  • Satellite Maps
  • Weather Map
  • News
  • Weather Widgets
  • user-avatar
    Login

    Hourly Weather Billings

    Today, 21 September, Thursday

    Time Temperature Precipitation Wind Pressure Humidity
    00:00 +11°C° 0.1 mm 4 mps 663 mmHg 57%
    01:00 +11°C° 0.1 mm 3 mps 663 mmHg 58%
    02:00 +10°C° 0.1 mm 3 mps 663 mmHg 58%
    03:00 +10°C° 0.1 mm 2 mps 663 mmHg 59%
    04:00 +10°C° 0.1 mm 2 mps 663 mmHg 60%
    05:00 +10°C° 0.1 mm 1 mps 663 mmHg 60%
    06:00 +11°C° 0.1 mm 1 mps 664 mmHg 58%
    07:00 +11°C° 0.1 mm 1 mps 664 mmHg 56%
    08:00 +11°C° 0.1 mm 1 mps 665 mmHg 54%
    09:00 +11°C° 0.1 mm 1 mps 665 mmHg 50%
    10:00 +12°C° 0.1 mm 1 mps 665 mmHg 46%
    11:00 +12°C° 0.1 mm 1 mps 666 mmHg 42%
    12:00 +12°C° 0.2 mm 2 mps 666 mmHg 43%
    13:00 +12°C° 0.2 mm 2 mps 666 mmHg 45%
    14:00 +12°C° 0.2 mm 3 mps 666 mmHg 46%
    15:00 +11°C° 0.5 mm 3 mps 666 mmHg 52%
    16:00 +10°C° 0.5 mm 3 mps 666 mmHg 58%
    17:00 +9°C° 0.5 mm 3 mps 666 mmHg 64%
    18:00 +8°C° 0.7 mm 3 mps 666 mmHg 68%
    19:00 +8°C° 0.7 mm 2 mps 666 mmHg 72%
    20:00 +7°C° 0.7 mm 2 mps 667 mmHg 76%
    21:00 +7°C° 1.6 mm 2 mps 667 mmHg 78%
    22:00 +7°C° 1.6 mm 2 mps 667 mmHg 81%
    23:00 +7°C° 1.6 mm 1 mps 667 mmHg 83%

    Tomorrow, 22 September, Friday

    Time Temperature Precipitation Wind Pressure Humidity
    00:00 +6°C° 2.1 mm 2 mps 667 mmHg 84%
    01:00 +6°C° 2.1 mm 2 mps 667 mmHg 85%
    02:00 +5°C° 2.1 mm 3 mps 667 mmHg 87%
    03:00 +5°C° 1.4 mm 3 mps 667 mmHg 86%
    04:00 +5°C° 1.4 mm 4 mps 667 mmHg 86%
    05:00 +5°C° 1.4 mm 4 mps 667 mmHg 85%
    06:00 +5°C° 0.5 mm 5 mps 668 mmHg 84%
    07:00 +5°C° 0.5 mm 5 mps 668 mmHg 84%
    08:00 +4°C° 0.5 mm 6 mps 668 mmHg 83%
    09:00 +4°C° 0.5 mm 6 mps 668 mmHg 82%
    10:00 +4°C° 0.5 mm 6 mps 668 mmHg 80%
    11:00 +5°C° 0.5 mm 6 mps 668 mmHg 79%
    12:00 +5°C° 0.9 mm 6 mps 668 mmHg 79%
    13:00 +6°C° 0.9 mm 5 mps 668 mmHg 78%
    14:00 +6°C° 0.9 mm 5 mps 668 mmHg 77%
    15:00 +6°C° 0.5 mm 5 mps 669 mmHg 78%
    16:00 +6°C° 0.5 mm 5 mps 669 mmHg 78%
    17:00 +6°C° 0.5 mm 4 mps 669 mmHg 78%
    18:00 +6°C° 0.2 mm 4 mps 670 mmHg 79%
    19:00 +5°C° 0.2 mm 3 mps 670 mmHg 80%
    20:00 +5°C° 0.2 mm 3 mps 671 mmHg 82%
    21:00 +6°C° 0 mm 2 mps 671 mmHg 82%
    22:00 +6°C° 0 mm 2 mps 671 mmHg 82%
    23:00 +7°C° 0 mm 1 mps 672 mmHg 82%

    Day after tomorrow, 23 September, Saturday

    Time Temperature Precipitation Wind Pressure Humidity
    00:00 +7°C° 0 mm 1 mps 672 mmHg 83%
    01:00 +7°C° 0 mm 1 mps 672 mmHg 83%
    02:00 +7°C° 0 mm 1 mps 672 mmHg 84%
    03:00 +7°C° 0 mm 1 mps 672 mmHg 84%
    04:00 +7°C° 0 mm 1 mps 672 mmHg 84%
    05:00 +6°C° 0 mm 2 mps 672 mmHg 84%
    06:00 +6°C° 0 mm 2 mps 672 mmHg 83%
    07:00 +6°C° 0 mm 2 mps 672 mmHg 81%
    08:00 +6°C° 0 mm 2 mps 672 mmHg 80%
    09:00 +7°C° 0.1 mm 2 mps 672 mmHg 78%
    10:00 +7°C° 0.1 mm 2 mps 672 mmHg 76%
    11:00 +8°C° 0.1 mm 2 mps 672 mmHg 74%
    12:00 +8°C° 0.2 mm 2 mps 672 mmHg 72%
    13:00 +9°C° 0.2 mm 2 mps 672 mmHg 71%
    14:00 +9°C° 0.2 mm 3 mps 671 mmHg 70%
    15:00 +9°C° 0 mm 3 mps 671 mmHg 71%
    16:00 +9°C° 0 mm 3 mps 671 mmHg 71%
    17:00 +9°C° 0 mm 3 mps 672 mmHg 72%
    18:00 +8°C° 0 mm 2 mps 672 mmHg 76%
    19:00 +8°C° 0 mm 2 mps 672 mmHg 79%
    20:00 +8°C° 0 mm 1 mps 673 mmHg 82%
    21:00 +8°C° 0 mm 1 mps 673 mmHg 83%
    22:00 +8°C° 0 mm 1 mps 673 mmHg 84%
    23:00 +7°C° 0 mm 1 mps 673 mmHg 85%

    24 September, Sunday

    Time Temperature Precipitation Wind Pressure Humidity
    00:00 +7°C° 0 mm 1 mps 673 mmHg 86%
    01:00 +7°C° 0 mm 1 mps 672 mmHg 86%
    02:00 +7°C° 0 mm 1 mps 672 mmHg 87%
    03:00 +6°C° 0 mm 1 mps 672 mmHg 86%
    04:00 +6°C° 0 mm 1 mps 673 mmHg 85%
    05:00 +6°C° 0 mm 1 mps 673 mmHg 84%
    06:00 +7°C° 0 mm 1 mps 673 mmHg 81%
    07:00 +8°C° 0 mm 1 mps 673 mmHg 77%
    08:00 +8°C° 0 mm 1 mps 673 mmHg 74%
    09:00 +9°C° 0 mm 1 mps 673 mmHg 69%
    10:00 +10°C° 0 mm 1 mps 673 mmHg 65%
    11:00 +11°C° 0 mm 1 mps 673 mmHg 61%
    12:00 +12°C° 0 mm 1 mps 672 mmHg 59%
    13:00 +12°C° 0 mm 1 mps 672 mmHg 57%
    14:00 +13°C° 0 mm 1 mps 672 mmHg 55%
    15:00 +13°C° 0 mm 1 mps 672 mmHg 54%
    16:00 +13°C° 0 mm 1 mps 672 mmHg 54%
    17:00 +13°C° 0 mm 2 mps 672 mmHg 54%
    18:00 +12°C° 0 mm 1 mps 672 mmHg 60%
    19:00 +11°C° 0 mm 1 mps 673 mmHg 65%
    20:00 +10°C° 0 mm 1 mps 673 mmHg 71%
    21:00 +9°C° 0 mm 1 mps 673 mmHg 72%
    22:00 +9°C° 0 mm 1 mps 673 mmHg 74%
    23:00 +8°C° 0 mm 1 mps 673 mmHg 76%

    25 September, Monday

    Time Temperature Precipitation Wind Pressure Humidity
    00:00 +8°C° 0 mm 1 mps 673 mmHg 77%
    01:00 +8°C° 0 mm 1 mps 673 mmHg 78%
    02:00 +7°C° 0 mm 1 mps 673 mmHg 79%
    03:00 +7°C° 0 mm 1 mps 673 mmHg 78%
    04:00 +7°C° 0 mm 1 mps 673 mmHg 78%
    05:00 +7°C° 0 mm 1 mps 673 mmHg 77%
    06:00 +8°C° 0 mm 1 mps 674 mmHg 71%
    07:00 +9°C° 0 mm 1 mps 674 mmHg 66%
    08:00 +10°C° 0 mm 1 mps 675 mmHg 60%
    09:00 +11°C° 0 mm 1 mps 675 mmHg 55%
    10:00 +12°C° 0 mm 1 mps 675 mmHg 50%
    11:00 +14°C° 0 mm 1 mps 675 mmHg 46%
    12:00 +14°C° 0 mm 1 mps 675 mmHg 43%
    13:00 +15°C° 0 mm 1 mps 675 mmHg 40%
    14:00 +16°C° 0 mm 1 mps 675 mmHg 38%
    15:00 +16°C° 0 mm 1 mps 675 mmHg 37%
    16:00 +16°C° 0 mm 1 mps 675 mmHg 37%
    17:00 +15°C° 0 mm 0 mps 675 mmHg 37%
    18:00 +15°C° 0 mm 1 mps 675 mmHg 40%
    19:00 +13°C° 0 mm 1 mps 675 mmHg 44%
    20:00 +12°C° 0 mm 2 mps 675 mmHg 48%
    21:00 +12°C° 0 mm 2 mps 675 mmHg 50%
    22:00 +10°C° 0 mm 2 mps 675 mmHg 52%
    23:00 +9°C° 0 mm 2 mps 675 mmHg 54%

    26 September, Tuesday

    Time Temperature Precipitation Wind Pressure Humidity
    00:00 +9°C° 0 mm 2 mps 675 mmHg 54%
    01:00 +9°C° 0 mm 2 mps 675 mmHg 55%
    02:00 +8°C° 0 mm 2 mps 675 mmHg 55%
    03:00 +8°C° 0 mm 2 mps 675 mmHg 56%
    04:00 +8°C° 0 mm 2 mps 675 mmHg 56%
    05:00 +7°C° 0 mm 2 mps 675 mmHg 57%
    06:00 +8°C° 0 mm 2 mps 675 mmHg 55%
    07:00 +9°C° 0 mm 2 mps 675 mmHg 52%
    08:00 +10°C° 0 mm 3 mps 675 mmHg 50%
    09:00 +12°C° 0 mm 3 mps 675 mmHg 45%
    10:00 +14°C° 0 mm 3 mps 675 mmHg 40%
    11:00 +16°C° 0 mm 3 mps 675 mmHg 35%
    12:00 +17°C° 0 mm 3 mps 675 mmHg 33%
    13:00 +18°C° 0 mm 3 mps 675 mmHg 31%
    14:00 +18°C° 0 mm 3 mps 675 mmHg 29%
    15:00 +18°C° 0 mm 2 mps 675 mmHg 30%
    16:00 +18°C° 0 mm 2 mps 674 mmHg 32%
    17:00 +18°C° 0 mm 2 mps 674 mmHg 33%
    18:00 +16°C° 0 mm 2 mps 674 mmHg 36%
    19:00 +14°C° 0 mm 3 mps 674 mmHg 40%
    20:00 +12°C° 0 mm 3 mps 674 mmHg 43%
    21:00 +12°C° 0 mm 3 mps 674 mmHg 44%
    22:00 +11°C° 0 mm 3 mps 674 mmHg 45%
    23:00 +11°C° 0 mm 3 mps 673 mmHg 46%
    Show more